DELTA 1 DEB, 10663

Orbit data source: Space-Track

DELTA 1 DEB, 10663 is space debris in SSO originally from a launch on Thu, 29 Jul 1976 UTC launched from the Air Force Western Test Range (AFWTR). Debris objects in space refer to the collection of defunct objects orbiting the Earth. Examples of debris include non-operational satellites, rocket bodies, and fragments generated from explosions, collisions, or faulty payload assembly.

Loading next visibility...
Identifier
10663, 1976-077Z
Orbit
SSO
Country
Flag of USUS
Related business
Manufacturer
Unknown
Mission
Spacecraft
Bus & Motor
Unknown
Mass
Unknown
Launch date (UTC)
1976-07-29 (50 years ago)
Launch vehicle
Unknown
Launch site
Air Force Western Test Range (AFWTR)
Object type
Payload
Rocket body
Debris
Shape & HBR
Unknown shape, 0.1 m
Radar Cross Section
Small (<0.1 m²)

Expand to show TLE details & history
Last TLE update: 16 hours ago

TLE from 16 hours ago
0 DELTA 1 DEB
1 10663U 76077Z   26104.59394568  .00005476  00000-0  32275-2 0  9998
2 10663 100.6058 117.6502 0105969 357.6707   2.3949 14.05649316422010
Epoch: 2026-04-14T14:15Z
TLE epoch observation values (Epoch: 2026-04-14T14:15:16.906Z)
Latitude
0.00002°
Longitude
61.0618°
Altitude
800.327 km
Speed
7.493 km/s
True Right ascension
07h 50m 36s
True Declination
0° 00' 00"
Sunlit
Object was in daylight at epoch
Visualization orbit readout
Latitude
Unknown
Longitude
Unknown
Altitude
Unknown
Speed
Unknown
Apparent Right ascension
Unknown
Apparent Declination
Unknown
Sunlit
N/A
Visualization observer readout
Local Sidereal Time
12:25:50
Azimuth
Unknown
Elevation
Unknown
Doppler factor
Unknown
Orbital elements
Apogee altitude
948.4 km
Perigee altitude
794.751 km
Semi-major axis
7,249.712 km
Eccentricity
0.0106
Inclination
100.6058°
RAAN
117.6502°
Arg. of periapsis
357.6707°
True anomaly
2.44632°
Mean anomaly
2.3949°
Eccentric anomaly
2.42054°
Mean motion
3.51611 °/min
Orbital period
102.39 mins
BSTAR
0.0032275
Loading maneuver chart data...
Computing Atmospheric mass density...
Loading historical data...
Loading historical data...
Loading historical data...
Loading historical data...
Loading historical data...
Loading historical data...
Loading historical data...

Documentation

Showing up to 5 results
|